[[{"header":{"parameterUnit":"m.s-1","parameterCategory":2,"la1":30.2991,"la2":30.254,"lo1":-89.0895,"lo2":-89.0444,"dy":0.0017,"dx":0.0017,"nx":28,"ny":28,"refTime":"2024-03-21T09:00:00:Z","depth":"0","parameterNumber":2,"parameterNumberName":"U-component_of_CURRENTS"},"data":[0,0,0,0,0,0,0,0,0,0,0,0,0,0,0,0,0,0,0,0,0,0,0,0,0,0,0,0,0,0,0,0,0,0,0,0,0,0,0,0,0,0,0,0,0,0,0,0,0,0,0,0,0,0,0,0,0,0,0.3477,0.3478,0,0.3599,0.3601,0.3602,0.362,0.3619,0.3617,0.3616,0.3599,0.36,0.36,0,0,0,0,0,0,0,0,0,0,0,0,0,0.3343,0.3345,0.3477,0.3479,0.348,0.3599,0.3601,0.3603,0.362,0.3618,0.3617,0.3616,0.3599,0.36,0.36,0,0,0,0,0,0,0,0,0,0,0,0,0,0.3427,0.3345,0.3477,0.3502,0.3506,0.3599,0.3601,0.3603,0.362,0.3618,0.3617,0.3615,0.3599,0.36,0.3601,0.3643,0,0,0.3604,0.3604,0,0,0,0,0,0,0,0,0.3422,0.3432,0.3497,0.3501,0.3505,0.3592,0.3547,0.3609,0.3621,0.3578,0.3616,0.3614,0.3585,0.3587,0.3617,0.3642,0.3641,0.3604,0.3604,0.3605,0.3605,0,0,0,0,0,0,0,0.3416,0.3427,0.3526,0.3499,0.3504,0.3537,0.3546,0.356,0.3588,0.3581,0.3583,0.3596,0.3585,0.3616,0.3616,0.3641,0.3604,0.3605,0.3605,0.3606,0.3708,0.371,0,0,0,0,0,0,0.3398,0.3422,0.3522,0.353,0.3457,0.354,0.355,0.3566,0.3591,0.3594,0.3597,0.3596,0.3615,0.3615,0.3615,0.3662,0.3605,0.3606,0.3606,0.3706,0.3709,0.3711,0,0,0,0,0,0,0.3394,0.3406,0.3517,0.3477,0.3494,0.3543,0.3562,0.357,0.3607,0.3604,0.3604,0.3626,0.3614,0.3614,0.3636,0.3661,0.3606,0.3607,0.3704,0.3707,0.371,0.3758,0,0,0,0,0,0,0.339,0.3404,0.3414,0.3476,0.3495,0.3574,0.3564,0.3573,0.3617,0.3617,0.3629,0.3625,0.3612,0.3635,0.3637,0.3661,0.3608,0.3701,0.3705,0.3709,0.3753,0.3762,0.3769,0,0,0,0,0,0.3385,0.3407,0.3413,0.3426,0.3506,0.3575,0.3589,0.3618,0.362,0.3644,0.3652,0.3625,0.3662,0.3638,0.364,0.3665,0.3699,0.3704,0.3709,0.375,0.376,0.3769,0,0,0,0,0,0,0.3344,0.3413,0.3421,0.3459,0.3511,0.3578,0.3605,0.3632,0.3665,0.3659,0.3652,0.3651,0.3681,0.3675,0.3649,0.371,0.3677,0.3683,0.3708,0.3718,0.3726,0.3731,0.3609,0,0,0,0,0,0.3342,0.3382,0.3443,0.3473,0.3498,0.3556,0.3589,0.3615,0.3652,0.3667,0.367,0.3682,0.3708,0.3711,0.3726,0.3759,0.3746,0.3779,0.3787,0.3794,0.3803,0.384,0.3852,0.3727,0.3727,0.3727,0,0,0.3331,0.3377,0.3395,0.3468,0.3509,0.3563,0.3572,0.3629,0.367,0.3657,0.3699,0.371,0.3725,0.3761,0.3774,0.3754,0.3814,0.38,0.3805,0.3811,0.3846,0.3858,0.3869,0.373,0.373,0.3729,0,0,0.3345,0.3372,0.3415,0.3463,0.3534,0.3573,0.3592,0.366,0.3684,0.3738,0.3738,0.377,0.38,0.3819,0.3834,0.3902,0.386,0.3901,0.3941,0.3977,0.3987,0.3996,0.395,0.3955,0.3901,0.3901,0.3901,0,0.3331,0.339,0.3437,0.3493,0.3529,0.3579,0.3628,0.3675,0.3738,0.3764,0.3751,0.3831,0.3836,0.3898,0.3918,0.392,0.3903,0.3897,0.3986,0.3995,0.4003,0.3954,0.3959,0.3904,0.3904,0.3903,0.3903,0,0.3379,0.3427,0.3456,0.354,0.3585,0.3636,0.3698,0.3745,0.3776,0.3818,0.3882,0.3904,0.3948,0.3961,0.396,0.4026,0.398,0.3992,0.3955,0.4018,0.3963,0.3966,0.3908,0.3907,0.3906,0.3905,0,0,0.3341,0.3467,0.3474,0.3509,0.3611,0.3645,0.3726,0.3806,0.3848,0.3908,0.3962,0.4027,0.4034,0.4054,0.4058,0.409,0.4119,0.4064,0.4065,0.4006,0.4137,0.4109,0.4109,0.4146,0.4148,0.415,0.4057,0,0.3363,0.3456,0.3521,0.3591,0.3635,0.3707,0.3769,0.3844,0.3902,0.396,0.4016,0.4056,0.4071,0.4078,0.4128,0.4123,0.4139,0.4139,0.4097,0.4094,0.4053,0.4118,0.4098,0.4018,0.4061,0.4061,0.4062,0,0.338,0.3442,0.3513,0.3607,0.363,0.3674,0.3763,0.3829,0.3938,0.3981,0.4058,0.4089,0.415,0.4149,0.4192,0.4187,0.4172,0.4166,0.4163,0.4129,0.4077,0.3973,0.4022,0.4006,0.4067,0.4066,0.4066,0,0.3303,0.3427,0.3472,0.3505,0.3624,0.3656,0.3715,0.3824,0.3865,0.3978,0.4005,0.4106,0.4119,0.4165,0.4176,0.4178,0.4202,0.4196,0.4151,0.4143,0.4117,0.4106,0.4143,0.4236,0.4236,0.4236,0.4237,0,0.3288,0.3318,0.3432,0.3447,0.3479,0.3589,0.3628,0.3712,0.3819,0.3861,0.3985,0.4024,0.413,0.4164,0.4178,0.4174,0.4204,0.4166,0.4145,0.4128,0.412,0.4096,0.4077,0.4233,0.4234,0.4234,0.4235,0,0.3188,0.3273,0.3309,0.3416,0.3436,0.3447,0.3538,0.3577,0.3695,0.3753,0.378,0.394,0.4007,0.4084,0.4138,0.4145,0.4071,0.4143,0.4079,0.4055,0.4001,0.3984,0.3748,0.363,0.4066,0.4066,0.4065,0,0.3151,0.3166,0.3233,0.3234,0.327,0.3311,0.3338,0.3476,0.3524,0.3692,0.3705,0.3821,0.3915,0.3989,0.4056,0.4081,0.4003,0.4035,0.4067,0.401,0.3976,0.3768,0.3671,0.4012,0.4011,0.401,0.4009,0,0.3063,0.3078,0.31,0.3094,0.3103,0.3124,0.3184,0.3211,0.3383,0.3456,0.3573,0.3672,0.3826,0.3911,0.3984,0.4,0.3906,0.4015,0.4005,0.3987,0.3715,0.3588,0.3997,0.4001,0.4002,0.4003,0.4003,0.4003,0.2969,0.2943,0.2957,0.2932,0.294,0.2935,0.2925,0.303,0.3093,0.3222,0.3398,0.3538,0.3797,0.3939,0.3901,0.3926,0.3813,0.3916,0.3903,0.3695,0.3591,0.3949,0.3917,0.3917,0.3917,0.3917,0.3917,0,0.2825,0.281,0.28,0.2758,0.2714,0.2772,0.2809,0.2812,0.2855,0.3079,0.3202,0.3503,0.3654,0.381,0.3974,0.3895,0.3659,0.3816,0.3578,0.3491,0.3891,0.3911,0.382,0.382,0.382,0.382,0.382,0.382,0.2745,0.2666,0.2651,0.2529,0.252,0.2444,0.2447,0.2491,0.2633,0.2825,0.3026,0.3232,0.3661,0.3978,0.4018,0.3909,0.3627,0.3474,0.3369,0.3788,0.3797,0.3806,0.3825,0.3717,0.3717,0.2866,0.2861,0.2857]},{"header":{"parameterUnit":"m.s-1","parameterCategory":2,"la1":30.2991,"la2":30.254,"lo1":-89.0895,"lo2":-89.0444,"dy":0.0017,"dx":0.0017,"nx":28,"ny":28,"refTime":"2024-03-21T09:00:00:Z","depth":"0","parameterNumber":3,"parameterNumberName":"V-component_of_CURRENTS"},"data":[0,0,0,0,0,0,0,0,0,0,0,0,0,0,0,0,0,0,0,0,0,0,0,0,0,0,0,0,0,0,0,0,0,0,0,0,0,0,0,0,0,0,0,0,0,0,0,0,0,0,0,0,0,0,0,0,0,0,-0.0235,-0.0236,0,-0.0292,-0.0293,-0.0294,-0.0347,-0.0347,-0.0348,-0.0349,-0.0424,-0.0426,-0.0427,0,0,0,0,0,0,0,0,0,0,0,0,0,-0.023,-0.023,-0.0235,-0.0236,-0.0237,-0.0292,-0.0293,-0.0294,-0.0347,-0.0347,-0.0348,-0.0349,-0.0424,-0.0426,-0.0427,0,0,0,0,0,0,0,0,0,0,0,0,0,-0.0255,-0.0229,-0.0235,-0.0269,-0.0273,-0.0292,-0.0293,-0.0294,-0.0347,-0.0347,-0.0348,-0.0349,-0.0423,-0.0425,-0.0427,-0.0423,0,0,-0.0434,-0.0435,0,0,0,0,0,0,0,0,-0.0253,-0.0255,-0.0264,-0.0267,-0.0271,-0.0313,-0.0319,-0.0338,-0.0346,-0.0319,-0.0349,-0.035,-0.0387,-0.0393,-0.0402,-0.0427,-0.043,-0.0434,-0.0436,-0.0437,-0.0437,0,0,0,0,0,0,0,-0.0251,-0.0253,-0.0259,-0.0264,-0.0269,-0.0301,-0.0305,-0.0323,-0.0349,-0.0322,-0.0326,-0.033,-0.039,-0.04,-0.0404,-0.0431,-0.0434,-0.0436,-0.0438,-0.0438,-0.0479,-0.0478,0,0,0,0,0,0,-0.0238,-0.0251,-0.0257,-0.026,-0.0263,-0.03,-0.0305,-0.0299,-0.0348,-0.0356,-0.033,-0.0333,-0.0396,-0.0402,-0.0407,-0.0389,-0.0437,-0.0439,-0.044,-0.0479,-0.0479,-0.0478,0,0,0,0,0,0,-0.0238,-0.0238,-0.0255,-0.0257,-0.0262,-0.0299,-0.0292,-0.03,-0.0306,-0.0354,-0.0363,-0.0328,-0.0397,-0.0404,-0.0415,-0.0393,-0.044,-0.0442,-0.0479,-0.0479,-0.0479,-0.0362,0,0,0,0,0,0,-0.0237,-0.0237,-0.0229,-0.0256,-0.0261,-0.0243,-0.0292,-0.03,-0.0307,-0.0312,-0.0355,-0.0363,-0.0398,-0.0411,-0.0417,-0.0397,-0.0443,-0.048,-0.0479,-0.0479,-0.0366,-0.0357,-0.035,0,0,0,0,0,-0.0237,-0.0208,-0.0228,-0.0229,-0.0248,-0.0242,-0.0246,-0.0278,-0.0306,-0.0291,-0.033,-0.0362,-0.0413,-0.0412,-0.0419,-0.0399,-0.048,-0.0479,-0.0479,-0.0369,-0.0359,-0.035,0,0,0,0,0,0,-0.019,-0.0212,-0.0234,-0.0212,-0.0221,-0.025,-0.0244,-0.0268,-0.0287,-0.0296,-0.0349,-0.0358,-0.0362,-0.0399,-0.0397,-0.0414,-0.0455,-0.0456,-0.037,-0.0361,-0.0353,-0.0326,-0.0445,0,0,0,0,0,-0.0179,-0.0171,-0.0192,-0.0174,-0.0177,-0.0212,-0.0216,-0.0233,-0.0255,-0.0265,-0.0299,-0.034,-0.0365,-0.0377,-0.0405,-0.0404,-0.0445,-0.0403,-0.0395,-0.0388,-0.0373,-0.0416,-0.041,-0.0477,-0.0477,-0.0477,0,0,-0.0152,-0.0167,-0.016,-0.0166,-0.0182,-0.0161,-0.0216,-0.0207,-0.019,-0.0269,-0.0261,-0.0307,-0.036,-0.0362,-0.0368,-0.0389,-0.0391,-0.0387,-0.038,-0.0369,-0.0415,-0.0408,-0.0402,-0.0476,-0.0476,-0.0476,0,0,-0.0096,-0.0112,-0.009,-0.0091,-0.0104,-0.0118,-0.0109,-0.0132,-0.0144,-0.0142,-0.02,-0.023,-0.0267,-0.0299,-0.0321,-0.0287,-0.0346,-0.0305,-0.0239,-0.0281,-0.0275,-0.0271,-0.0311,-0.0311,-0.0302,-0.0302,-0.0302,0,-0.0064,-0.004,-0.0078,-0.0055,-0.0045,-0.009,-0.0051,-0.0062,-0.0085,-0.0089,-0.0124,-0.0189,-0.0234,-0.0241,-0.0236,-0.0265,-0.0302,-0.0264,-0.0268,-0.0264,-0.0262,-0.0305,-0.0306,-0.0296,-0.0297,-0.0298,-0.0298,0,0.0009,0.0027,0.0046,0.0056,0.0062,0.0095,0.0074,0.0079,0.005,0.0026,0.0008,-0.0062,-0.0102,-0.0127,-0.0169,-0.0173,-0.021,-0.0249,-0.0283,-0.0247,-0.0296,-0.0299,-0.0288,-0.029,-0.0292,-0.0293,0,0,0.0093,0.0098,0.0105,0.0124,0.0127,0.0146,0.0174,0.0187,0.0205,0.0158,0.0169,0.0105,0.005,0.002,-0.0047,-0.0088,-0.0107,-0.0153,-0.0158,-0.0177,-0.0199,-0.0208,-0.0214,-0.0147,-0.0147,-0.0147,-0.0238,0,0.0167,0.0231,0.0211,0.0282,0.0319,0.029,0.0322,0.032,0.0298,0.0296,0.0214,0.0194,0.0111,0.0088,0.0038,-0.007,-0.0112,-0.0078,-0.0245,-0.0249,-0.0249,-0.0217,-0.0192,-0.027,-0.0242,-0.0243,-0.0244,0,0.0253,0.0279,0.0362,0.0392,0.0405,0.0442,0.0478,0.0499,0.0477,0.0454,0.041,0.0336,0.0274,0.0191,0.0042,0.0066,-0.0049,-0.0141,-0.0147,-0.0196,-0.0265,-0.0305,-0.0278,-0.0507,-0.025,-0.0249,-0.0249,0,0.0338,0.0387,0.0458,0.0474,0.0504,0.0535,0.0552,0.0551,0.0578,0.0551,0.0558,0.0458,0.0414,0.0266,0.0079,0.0057,-0.0091,-0.0151,-0.0267,-0.027,-0.0301,-0.0305,-0.0499,-0.0252,-0.0251,-0.0251,-0.0251,0,0.0434,0.0485,0.0505,0.0547,0.0628,0.0615,0.0694,0.0692,0.0704,0.0752,0.0644,0.0652,0.0429,0.0313,0.0128,-0.0065,-0.0055,-0.0241,-0.0287,-0.026,-0.026,-0.0504,-0.0635,-0.0255,-0.0254,-0.0253,-0.0253,0,0.0514,0.0534,0.0611,0.0654,0.0674,0.073,0.0788,0.0838,0.0838,0.0898,0.0894,0.0796,0.0646,0.0421,0.0177,0.0011,-0.031,-0.026,-0.021,-0.0247,-0.0569,-0.0693,-0.091,-0.1022,-0.0404,-0.0404,-0.0405,0,0.0557,0.0613,0.0689,0.0739,0.0763,0.0836,0.0893,0.091,0.0968,0.0995,0.1034,0.0912,0.0858,0.0507,0.0179,-0.0129,-0.0344,-0.0313,-0.0352,-0.057,-0.0744,-0.0818,-0.0903,-0.0357,-0.0357,-0.0357,-0.0357,0,0.0635,0.0668,0.0725,0.083,0.0902,0.0985,0.1065,0.1139,0.1176,0.1229,0.1276,0.1238,0.0909,0.0609,0.0184,-0.0039,-0.0466,-0.0324,-0.0569,-0.0729,-0.0804,-0.0939,-0.0322,-0.0358,-0.0358,-0.0358,-0.0358,-0.0357,0.0684,0.0737,0.0818,0.0918,0.1003,0.1121,0.1222,0.1315,0.1431,0.1549,0.1484,0.1506,0.1052,0.0475,0.0112,-0.0498,-0.0518,-0.0678,-0.0813,-0.0868,-0.0971,-0.0346,-0.0422,-0.0423,-0.0423,-0.0423,-0.0423,0,0.073,0.0795,0.0895,0.1016,0.1122,0.116,0.1326,0.1446,0.1611,0.1737,0.1793,0.1638,0.105,0.046,-0.0369,-0.0866,-0.1051,-0.1149,-0.1271,-0.1339,-0.0799,-0.0791,-0.0927,-0.0927,-0.0926,-0.0926,-0.0926,-0.0926,0.0758,0.0854,0.0907,0.1089,0.1184,0.1355,0.147,0.1653,0.1805,0.2009,0.2086,0.2097,0.1698,0.0054,-0.1032,-0.1313,-0.1696,-0.178,-0.1982,-0.1642,-0.1609,-0.1578,-0.1602,-0.1905,-0.1907,-0.2441,-0.2447,-0.2451]}],[{"header":{"parameterUnit":"m.s-1","parameterCategory":2,"la1":30.2991,"la2":30.254,"lo1":-89.0895,"lo2":-89.0444,"dy":0.0017,"dx":0.0017,"nx":28,"ny":28,"refTime":"2024-03-21T09:00:00:Z","depth":"2","parameterNumber":2,"parameterNumberName":"U-component_of_CURRENTS"},"data":[0,0,0,0,0,0,0,0,0,0,0,0,0,0,0,0,0,0,0,0,0,0,0,0,0,0,0,0,0,0,0,0,0,0,0,0,0,0,0,0,0,0,0,0,0,0,0,0,0,0,0,0,0,0,0,0,0,0,0.32,0.3202,0,0.3362,0.3364,0.3366,0.3387,0.3385,0.3383,0.3381,0.3351,0.3352,0.3353,0,0,0,0,0,0,0,0,0,0,0,0,0,0.3069,0.3071,0.32,0.3202,0.3204,0.3361,0.3364,0.3366,0.3387,0.3385,0.3383,0.338,0.335,0.3352,0.3353,0,0,0,0,0,0,0,0,0,0,0,0,0,0.3171,0.3071,0.32,0.323,0.3234,0.3361,0.3364,0.3367,0.3388,0.3385,0.3382,0.3379,0.335,0.3352,0.3353,0.3419,0,0,0.3357,0.3358,0,0,0,0,0,0,0,0,0.3165,0.3177,0.3224,0.3228,0.3233,0.3348,0.3306,0.3374,0.3388,0.3334,0.3381,0.3378,0.3331,0.3334,0.338,0.3418,0.3417,0.3358,0.3358,0.3359,0.3359,0,0,0,0,0,0,0,0.3158,0.3171,0.3268,0.3226,0.3231,0.329,0.33,0.3321,0.3346,0.3338,0.3339,0.3352,0.3333,0.3378,0.3378,0.3416,0.3358,0.3359,0.336,0.336,0.3483,0.3485,0,0,0,0,0,0,0.3125,0.3163,0.3263,0.3273,0.3187,0.3293,0.3305,0.3317,0.335,0.3353,0.3354,0.3352,0.3377,0.3377,0.3377,0.3427,0.3359,0.336,0.3361,0.3481,0.3483,0.3486,0,0,0,0,0,0,0.3122,0.3133,0.3256,0.3218,0.3237,0.3297,0.3311,0.3322,0.3376,0.3363,0.3363,0.3397,0.3375,0.3375,0.3393,0.3426,0.3361,0.3362,0.3478,0.3481,0.3485,0.3544,0,0,0,0,0,0,0.3118,0.3131,0.315,0.3216,0.3238,0.3314,0.3314,0.3327,0.3385,0.3384,0.34,0.3394,0.3373,0.3392,0.3395,0.3426,0.3364,0.3475,0.3479,0.3484,0.3539,0.355,0.3558,0,0,0,0,0,0.3112,0.3144,0.315,0.3162,0.3255,0.3314,0.3332,0.3368,0.339,0.341,0.3424,0.3394,0.3422,0.3395,0.3398,0.3431,0.3473,0.3478,0.3483,0.3535,0.3548,0.3558,0,0,0,0,0,0,0.3091,0.3151,0.3158,0.3204,0.3244,0.3315,0.3356,0.339,0.3432,0.3433,0.3425,0.3421,0.3452,0.3443,0.3414,0.3483,0.3444,0.345,0.3482,0.3494,0.3503,0.351,0.3365,0,0,0,0,0,0.3096,0.314,0.3185,0.3223,0.3245,0.3311,0.3351,0.3373,0.3412,0.3432,0.3442,0.3459,0.3485,0.3486,0.3499,0.354,0.3522,0.3566,0.3575,0.3583,0.3594,0.3622,0.3634,0.3504,0.3504,0.3503,0,0,0.3095,0.3138,0.316,0.3223,0.3267,0.3314,0.3329,0.3388,0.3428,0.3419,0.3478,0.3493,0.3505,0.3543,0.3556,0.3532,0.3604,0.359,0.3596,0.3603,0.3629,0.3641,0.3652,0.3507,0.3507,0.3506,0,0,0.3123,0.3155,0.32,0.3238,0.33,0.3337,0.3355,0.3426,0.3453,0.3515,0.3519,0.3559,0.3597,0.3611,0.3626,0.3705,0.3657,0.3708,0.3754,0.3782,0.3793,0.3802,0.3754,0.3758,0.3707,0.3707,0.3707,0,0.3124,0.3177,0.322,0.3271,0.3303,0.3347,0.339,0.3439,0.3504,0.3533,0.3527,0.3632,0.3637,0.3699,0.3724,0.3726,0.3705,0.3704,0.3792,0.3801,0.381,0.3759,0.3763,0.3711,0.371,0.371,0.371,0,0.3172,0.3221,0.3252,0.3324,0.3365,0.3409,0.3458,0.3509,0.3556,0.3597,0.3671,0.3701,0.3754,0.3774,0.3775,0.3845,0.3796,0.3802,0.3757,0.3826,0.3768,0.3771,0.3716,0.3715,0.3714,0.3713,0,0,0.3153,0.3265,0.3275,0.3302,0.3392,0.3419,0.35,0.3569,0.3618,0.3686,0.3746,0.3828,0.3845,0.3865,0.3875,0.391,0.3943,0.3884,0.3884,0.3823,0.3948,0.392,0.3919,0.3962,0.3964,0.3966,0.3868,0,0.3175,0.3259,0.3318,0.3382,0.3417,0.3483,0.3547,0.3615,0.3674,0.3735,0.3796,0.3848,0.3876,0.3897,0.3947,0.3942,0.3962,0.3966,0.3903,0.3899,0.3857,0.3928,0.3676,0.3571,0.387,0.3871,0.3871,0,0.3187,0.3246,0.331,0.3396,0.3417,0.3462,0.3552,0.3615,0.3717,0.3764,0.3846,0.3879,0.3945,0.3956,0.4,0.3996,0.3987,0.3984,0.398,0.3941,0.3881,0.3561,0.3564,0.3876,0.3875,0.3875,0.3875,0,0.3113,0.3228,0.3271,0.33,0.3412,0.3452,0.3512,0.362,0.3658,0.3769,0.3799,0.3895,0.3916,0.396,0.3982,0.3983,0.4005,0.3994,0.3953,0.3946,0.3715,0.3687,0.4035,0.4035,0.4036,0.4036,0.4036,0,0.309,0.3122,0.3236,0.3251,0.3291,0.3396,0.3445,0.3529,0.3629,0.3667,0.3788,0.3827,0.3927,0.3957,0.3974,0.3971,0.3997,0.3972,0.3945,0.3726,0.3702,0.3965,0.3958,0.4032,0.4033,0.4034,0.4034,0,0.2995,0.3075,0.3111,0.3222,0.3248,0.3268,0.3365,0.3403,0.3524,0.3574,0.3603,0.3749,0.3816,0.3887,0.3937,0.3938,0.3948,0.394,0.365,0.3595,0.3853,0.385,0.386,0.3859,0.3858,0.3857,0.3856,0,0.2958,0.2968,0.3046,0.305,0.3093,0.3147,0.318,0.3316,0.3359,0.3522,0.3526,0.3642,0.3722,0.3786,0.3816,0.3827,0.391,0.3586,0.3586,0.3875,0.3847,0.3846,0.3845,0.3256,0.325,0.3246,0.3242,0,0.2869,0.2889,0.2916,0.2921,0.2938,0.2964,0.3031,0.3052,0.3221,0.3289,0.3398,0.3487,0.3599,0.3548,0.3601,0.3577,0.3574,0.3497,0.3865,0.3382,0.3311,0.3282,0.3299,0.3201,0.3205,0.3208,0.3211,0.3212,0.2786,0.2761,0.2781,0.2769,0.2782,0.2781,0.2775,0.2868,0.2926,0.3017,0.3192,0.3239,0.3321,0.33,0.3214,0.3157,0.3408,0.327,0.3281,0.3297,0.3289,0.3225,0.309,0.3093,0.3096,0.3099,0.3101,0,0.2649,0.2637,0.2628,0.2602,0.2558,0.2626,0.2662,0.2639,0.267,0.2805,0.2896,0.2736,0.2759,0.2817,0.2697,0.2733,0.2667,0.2611,0.2502,0.2548,0.2588,0.2539,0.2143,0.2139,0.2135,0.2132,0,0,0.2572,0.2499,0.2483,0.2372,0.2374,0.2295,0.2297,0.2291,0.2352,0.2351,0.2379,0.2621,0.2769,0.2405,0.2393,0.2243,0.2357,0.2156,0.2942,0.2863,0.2896,0.301,0.2995,0,0,0,0,0]},{"header":{"parameterUnit":"m.s-1","parameterCategory":2,"la1":30.2991,"la2":30.254,"lo1":-89.0895,"lo2":-89.0444,"dy":0.0017,"dx":0.0017,"nx":28,"ny":28,"refTime":"2024-03-21T09:00:00:Z","depth":"2","parameterNumber":3,"parameterNumberName":"V-component_of_CURRENTS"},"data":[0,0,0,0,0,0,0,0,0,0,0,0,0,0,0,0,0,0,0,0,0,0,0,0,0,0,0,0,0,0,0,0,0,0,0,0,0,0,0,0,0,0,0,0,0,0,0,0,0,0,0,0,0,0,0,0,0,0,-0.0083,-0.0084,0,-0.0156,-0.0157,-0.0158,-0.0214,-0.0214,-0.0214,-0.0215,-0.0289,-0.029,-0.0292,0,0,0,0,0,0,0,0,0,0,0,0,0,-0.0078,-0.0078,-0.0083,-0.0084,-0.0084,-0.0156,-0.0157,-0.0158,-0.0214,-0.0214,-0.0214,-0.0215,-0.0288,-0.029,-0.0292,0,0,0,0,0,0,0,0,0,0,0,0,0,-0.011,-0.0078,-0.0083,-0.0119,-0.0123,-0.0155,-0.0157,-0.0158,-0.0214,-0.0214,-0.0215,-0.0215,-0.0288,-0.029,-0.0293,-0.0298,0,0,-0.03,-0.0301,0,0,0,0,0,0,0,0,-0.0108,-0.0111,-0.0113,-0.0117,-0.0121,-0.0174,-0.0183,-0.0205,-0.0213,-0.0181,-0.0215,-0.0215,-0.0249,-0.0255,-0.027,-0.0302,-0.0305,-0.03,-0.0302,-0.0303,-0.0304,0,0,0,0,0,0,0,-0.0106,-0.0109,-0.0114,-0.0114,-0.0118,-0.0161,-0.0166,-0.0188,-0.0213,-0.0184,-0.0188,-0.0192,-0.0251,-0.0268,-0.0272,-0.0306,-0.03,-0.0303,-0.0304,-0.0305,-0.0359,-0.0359,0,0,0,0,0,0,-0.0087,-0.0106,-0.0112,-0.0116,-0.0113,-0.016,-0.0166,-0.0158,-0.0213,-0.0221,-0.0192,-0.0195,-0.0263,-0.0269,-0.0275,-0.0262,-0.0303,-0.0305,-0.0307,-0.0359,-0.0359,-0.0359,0,0,0,0,0,0,-0.0087,-0.0087,-0.0109,-0.0112,-0.0117,-0.0159,-0.0151,-0.016,-0.0174,-0.0219,-0.0227,-0.0198,-0.0264,-0.0272,-0.0283,-0.0266,-0.0307,-0.0309,-0.0359,-0.0359,-0.0359,-0.0251,0,0,0,0,0,0,-0.0086,-0.0086,-0.0083,-0.011,-0.0116,-0.0101,-0.0151,-0.0161,-0.0176,-0.018,-0.0226,-0.0234,-0.0265,-0.0279,-0.0285,-0.0271,-0.0311,-0.0359,-0.0359,-0.0359,-0.0255,-0.0247,-0.0241,0,0,0,0,0,-0.0086,-0.0062,-0.0082,-0.0083,-0.0107,-0.0099,-0.0105,-0.014,-0.0175,-0.0161,-0.0202,-0.0232,-0.0283,-0.028,-0.0288,-0.0274,-0.0359,-0.0359,-0.0359,-0.0258,-0.0249,-0.0241,0,0,0,0,0,0,-0.005,-0.0067,-0.0088,-0.007,-0.0076,-0.0107,-0.0107,-0.0134,-0.0159,-0.017,-0.0222,-0.0231,-0.0237,-0.0274,-0.0269,-0.0293,-0.033,-0.0332,-0.0251,-0.0243,-0.0236,-0.0208,-0.0313,0,0,0,0,0,-0.0043,-0.0036,-0.0051,-0.0037,-0.0039,-0.0077,-0.0085,-0.0101,-0.0124,-0.0137,-0.0174,-0.0217,-0.0244,-0.0256,-0.0284,-0.0289,-0.0328,-0.0292,-0.0285,-0.0278,-0.0264,-0.0308,-0.0303,-0.0358,-0.0358,-0.0358,0,0,-0.0022,-0.0035,-0.003,-0.0031,-0.0049,-0.0028,-0.0082,-0.0077,-0.0063,-0.014,-0.0142,-0.0189,-0.0241,-0.0246,-0.0254,-0.0272,-0.0284,-0.0278,-0.0272,-0.0261,-0.0307,-0.0302,-0.0297,-0.0358,-0.0358,-0.0358,0,0,0.0025,0.0008,0.003,0.0032,0.002,0.0007,0.0015,-0.0009,-0.0024,-0.0027,-0.0086,-0.0118,-0.016,-0.019,-0.0213,-0.0187,-0.0245,-0.0208,-0.0147,-0.0189,-0.0185,-0.0181,-0.0221,-0.0221,-0.0205,-0.0205,-0.0205,0,0.0049,0.0075,0.0041,0.0064,0.0074,0.0031,0.0069,0.0056,0.0031,0.0024,-0.001,-0.0086,-0.0131,-0.0142,-0.0138,-0.0168,-0.0205,-0.0167,-0.0178,-0.0175,-0.0173,-0.0215,-0.0217,-0.02,-0.02,-0.0201,-0.0201,0,0.0118,0.0135,0.0152,0.0165,0.0171,0.0204,0.0186,0.0188,0.0153,0.0128,0.0105,0.0035,-0.0009,-0.0037,-0.0078,-0.0088,-0.0123,-0.0159,-0.019,-0.016,-0.0207,-0.0211,-0.0192,-0.0194,-0.0195,-0.0197,0,0,0.019,0.0201,0.0207,0.0227,0.0232,0.0251,0.0274,0.0287,0.03,0.0251,0.0255,0.0188,0.0132,0.0101,0.0035,-0.0009,-0.0033,-0.0072,-0.0077,-0.0094,-0.0126,-0.014,-0.0147,-0.0072,-0.0072,-0.0073,-0.0163,0,0.0259,0.0324,0.0308,0.0376,0.0412,0.0385,0.0414,0.041,0.0385,0.0378,0.0296,0.0271,0.0191,0.0164,0.0112,0.0003,-0.0039,-0.0005,-0.0167,-0.0171,-0.0174,-0.015,-0.0122,-0.0199,-0.0167,-0.0168,-0.0169,0,0.0343,0.0369,0.045,0.048,0.0493,0.0527,0.0557,0.0576,0.0551,0.0526,0.0479,0.0405,0.0339,0.0259,0.0108,0.0132,0.002,-0.0071,-0.0077,-0.0128,-0.0192,-0.0228,-0.0209,-0.0176,-0.0176,-0.0175,-0.0174,0,0.0423,0.0472,0.054,0.0556,0.0586,0.0613,0.0628,0.0623,0.0648,0.0617,0.0618,0.0518,0.0469,0.0325,0.0138,0.012,-0.0034,-0.0088,-0.0203,-0.0206,-0.0232,-0.0236,-0.0187,-0.0187,-0.0187,-0.0187,-0.0186,0,0.0515,0.0563,0.0583,0.0624,0.0699,0.0687,0.0759,0.0755,0.0763,0.0805,0.0699,0.0701,0.0481,0.0363,0.0184,-0.0011,-0.0,-0.018,-0.0225,-0.0195,-0.0194,-0.0217,-0.0219,-0.019,-0.0189,-0.0189,-0.0188,0,0.0589,0.061,0.0684,0.0724,0.0743,0.0794,0.0847,0.0893,0.0889,0.094,0.0935,0.0834,0.068,0.046,0.0218,0.0058,-0.0136,-0.0209,-0.0155,-0.0191,-0.0294,-0.029,-0.0348,-0.0349,-0.035,-0.0351,-0.0352,0,0.063,0.0684,0.0756,0.0803,0.0824,0.0892,0.0945,0.096,0.1014,0.103,0.1063,0.0936,0.0875,0.0524,0.0208,-0.0093,-0.0139,-0.0265,-0.0297,-0.027,-0.0308,-0.0302,-0.0297,-0.0296,-0.0297,-0.0297,-0.0297,0,0.0703,0.0733,0.0786,0.0886,0.0952,0.1032,0.1106,0.1175,0.1207,0.1251,0.1286,0.1241,0.0912,0.0614,0.0199,-0.0011,-0.0216,-0.0278,-0.0263,-0.0252,-0.0226,-0.0262,-0.0258,-0.0298,-0.0298,-0.0298,-0.0298,-0.0298,0.0746,0.0795,0.0873,0.0965,0.1046,0.1157,0.1254,0.1336,0.1441,0.1524,0.1463,0.1412,0.1061,0.054,0.0163,-0.0236,-0.0221,-0.0355,-0.0352,-0.035,-0.032,-0.0296,-0.0376,-0.0376,-0.0377,-0.0377,-0.0377,0,0.0785,0.0848,0.0943,0.1056,0.1155,0.1193,0.135,0.145,0.1595,0.1653,0.1683,0.1372,0.102,0.061,0.0026,-0.0317,-0.0354,-0.0433,-0.0396,-0.0391,-0.0388,-0.0359,-0.0427,-0.0428,-0.0429,-0.043,0,0,0.0811,0.0899,0.095,0.112,0.1212,0.1372,0.148,0.1624,0.1715,0.1792,0.1767,0.1671,0.1172,0.0746,0.0261,-0.0079,-0.0156,-0.0154,-0.0074,0.0032,0.0039,-0.0304,-0.0248,0,0,0,0,0]}],[{"header":{"parameterUnit":"m.s-1","parameterCategory":2,"la1":30.2991,"la2":30.254,"lo1":-89.0895,"lo2":-89.0444,"dy":0.0017,"dx":0.0017,"nx":28,"ny":28,"refTime":"2024-03-21T09:00:00:Z","depth":"4","parameterNumber":2,"parameterNumberName":"U-component_of_CURRENTS"},"data":[0,0,0,0,0,0,0,0,0,0,0,0,0,0,0,0,0,0,0,0,0,0,0,0,0,0,0,0,0,0,0,0,0,0,0,0,0,0,0,0,0,0,0,0,0,0,0,0,0,0,0,0,0,0,0,0,0,0,0.1462,0.1462,0,0.1494,0.1494,0.1494,0.1571,0.1572,0.1574,0.1576,0.1774,0.1778,0.1781,0,0,0,0,0,0,0,0,0,0,0,0,0,0.1401,0.1402,0.1462,0.1462,0.1463,0.1494,0.1494,0.1494,0.157,0.1573,0.1575,0.1577,0.1773,0.1777,0.1782,0,0,0,0,0,0,0,0,0,0,0,0,0,0.1427,0.1402,0.1461,0.1507,0.1511,0.1494,0.1494,0.1495,0.157,0.1573,0.1575,0.1578,0.1772,0.1777,0.1782,0.176,0,0,0.1798,0.1801,0,0,0,0,0,0,0,0,0.1426,0.1429,0.1499,0.1504,0.1509,0.1534,0.1546,0.1592,0.1569,0.1544,0.1576,0.1579,0.1709,0.172,0.1713,0.1769,0.1777,0.1799,0.1802,0.1804,0.1806,0,0,0,0,0,0,0,0.1424,0.1428,0.1472,0.15,0.1506,0.1504,0.1511,0.1554,0.1612,0.1547,0.1553,0.156,0.1713,0.1707,0.1719,0.178,0.1799,0.1803,0.1807,0.1809,0.2018,0.2021,0,0,0,0,0,0,0.1426,0.1426,0.1471,0.1473,0.1477,0.1503,0.1511,0.152,0.1608,0.1623,0.1558,0.1564,0.1697,0.1712,0.1726,0.1902,0.1804,0.1809,0.1812,0.2016,0.2019,0.2022,0,0,0,0,0,0,0.1425,0.143,0.1469,0.1452,0.1458,0.1502,0.1512,0.152,0.1579,0.1615,0.1634,0.1617,0.17,0.1719,0.1841,0.1903,0.1812,0.1817,0.2013,0.2017,0.202,0.2128,0,0,0,0,0,0,0.1423,0.1429,0.1452,0.1453,0.1459,0.1515,0.151,0.1518,0.1576,0.1586,0.1671,0.1688,0.1703,0.1833,0.1847,0.1909,0.1821,0.201,0.2015,0.2019,0.2121,0.2135,0.2146,0,0,0,0,0,0.142,0.1436,0.1453,0.146,0.1485,0.1518,0.1523,0.1559,0.1578,0.1619,0.1687,0.1688,0.187,0.184,0.1855,0.1921,0.2008,0.2014,0.2019,0.2116,0.2132,0.2146,0,0,0,0,0,0,0.1419,0.1445,0.1464,0.1488,0.153,0.1534,0.1571,0.1589,0.1666,0.1698,0.1729,0.1752,0.1868,0.1881,0.1847,0.1991,0.1934,0.1943,0.2003,0.2019,0.2031,0.2016,0.1825,0,0,0,0,0,0.1428,0.1454,0.1482,0.1509,0.1538,0.1564,0.1588,0.1619,0.1672,0.1709,0.176,0.1823,0.1884,0.1948,0.1987,0.2084,0.2075,0.213,0.2143,0.2153,0.215,0.219,0.2206,0.2039,0.2039,0.2039,0,0,0.1434,0.1452,0.1469,0.1513,0.1547,0.1593,0.1588,0.1651,0.1699,0.172,0.1822,0.1867,0.1915,0.2015,0.2069,0.2053,0.2201,0.216,0.2169,0.216,0.2197,0.2214,0.2228,0.2043,0.2042,0.2041,0,0,0.1441,0.1486,0.1509,0.1566,0.1633,0.1646,0.1682,0.1729,0.1775,0.1873,0.1891,0.1975,0.208,0.2113,0.2146,0.225,0.2249,0.2282,0.236,0.2401,0.2414,0.2426,0.2453,0.2466,0.2308,0.2309,0.2309,0,0.1452,0.1485,0.1525,0.1581,0.1636,0.1682,0.174,0.1781,0.1863,0.191,0.1935,0.2073,0.2112,0.2218,0.2264,0.2276,0.2306,0.2304,0.2417,0.2428,0.2438,0.2462,0.2476,0.2314,0.2314,0.2313,0.2312,0,0.1485,0.1535,0.1568,0.1648,0.1711,0.1779,0.1848,0.1918,0.1979,0.2015,0.2144,0.2197,0.2283,0.2313,0.2335,0.2438,0.2437,0.2411,0.2377,0.2461,0.2482,0.2494,0.2323,0.2321,0.2319,0.2317,0,0,0.1452,0.1561,0.1582,0.1638,0.1768,0.1813,0.1919,0.2008,0.2077,0.2174,0.2261,0.237,0.2406,0.2443,0.2476,0.2526,0.2628,0.253,0.2529,0.2552,0.2738,0.2567,0.2563,0.2648,0.2651,0.2653,0.2728,0,0.1473,0.156,0.162,0.1731,0.1795,0.1901,0.1978,0.2081,0.2175,0.2268,0.2346,0.2438,0.2455,0.252,0.2579,0.2615,0.2664,0.261,0.2654,0.2655,0.2489,0.2571,0.266,0.2737,0.274,0.2741,0.2743,0,0.1497,0.1553,0.165,0.1774,0.1815,0.1895,0.2058,0.2129,0.2271,0.2358,0.2483,0.2533,0.265,0.2625,0.2749,0.2734,0.2749,0.2758,0.2761,0.2564,0.2504,0.263,0.2764,0.2762,0.276,0.2759,0.2758,0,0.1456,0.1581,0.165,0.1714,0.1852,0.1936,0.2016,0.2171,0.2254,0.242,0.2514,0.2639,0.2725,0.2777,0.283,0.2816,0.2927,0.2891,0.2742,0.273,0.2812,0.2798,0.2942,0.2942,0.2942,0.2942,0.2942,0,0.145,0.1515,0.1648,0.1701,0.1798,0.1923,0.2045,0.2154,0.2319,0.2414,0.2555,0.2649,0.2775,0.2853,0.2869,0.2854,0.2966,0.2759,0.274,0.2858,0.2849,0.2821,0.2806,0.2945,0.2944,0.2943,0.2943,0,0.1389,0.1469,0.1564,0.1724,0.178,0.1861,0.2056,0.214,0.2313,0.2451,0.2512,0.2704,0.2803,0.2882,0.2961,0.2889,0.2882,0.2836,0.2974,0.296,0.2649,0.2639,0.2674,0.2669,0.2665,0.2661,0.2658,0,0.1351,0.1395,0.157,0.1631,0.1713,0.1848,0.1934,0.2123,0.2224,0.2456,0.2508,0.2669,0.2766,0.2751,0.2843,0.2849,0.2806,0.2785,0.2694,0.2644,0.2623,0.262,0.2617,0.265,0.2649,0.2648,0.2647,0,0.1287,0.1368,0.1445,0.1574,0.1684,0.1778,0.193,0.1986,0.2182,0.2359,0.2446,0.249,0.2588,0.2641,0.2668,0.2663,0.2791,0.2736,0.2744,0.2659,0.2615,0.2598,0.26,0.2631,0.2633,0.2635,0.2636,0,0.125,0.1284,0.1402,0.1503,0.1619,0.1683,0.177,0.1886,0.1987,0.2236,0.2254,0.2411,0.2561,0.2545,0.2572,0.2559,0.2508,0.2411,0.2435,0.2454,0.2345,0.2254,0.2149,0,0,0,0,0,0.1215,0.124,0.1327,0.1417,0.1525,0.1592,0.1754,0.1845,0.2023,0.2028,0.2137,0.2206,0.2254,0.2341,0.228,0.2473,0.2518,0.2391,0.2419,0.2544,0.2562,0.2452,0,0,0,0,0,0,0.1184,0.1256,0.1288,0.1323,0.1363,0.1462,0.1551,0.1677,0.1694,0.188,0.1921,0.2061,0.2145,0.2255,0.2231,0.2255,0.2226,0.2493,0.2487,0.2533,0.255,0.2564,0.2458,0,0,0,0,0]},{"header":{"parameterUnit":"m.s-1","parameterCategory":2,"la1":30.2991,"la2":30.254,"lo1":-89.0895,"lo2":-89.0444,"dy":0.0017,"dx":0.0017,"nx":28,"ny":28,"refTime":"2024-03-21T09:00:00:Z","depth":"4","parameterNumber":3,"parameterNumberName":"V-component_of_CURRENTS"},"data":[0,0,0,0,0,0,0,0,0,0,0,0,0,0,0,0,0,0,0,0,0,0,0,0,0,0,0,0,0,0,0,0,0,0,0,0,0,0,0,0,0,0,0,0,0,0,0,0,0,0,0,0,0,0,0,0,0,0,0.024,0.024,0,0.0232,0.0232,0.0232,0.0212,0.0211,0.0211,0.021,0.0116,0.0114,0.0112,0,0,0,0,0,0,0,0,0,0,0,0,0,0.0237,0.0237,0.024,0.024,0.0239,0.0232,0.0232,0.0232,0.0212,0.0211,0.0211,0.021,0.0116,0.0114,0.0111,0,0,0,0,0,0,0,0,0,0,0,0,0,0.0236,0.0237,0.024,0.0227,0.0226,0.0232,0.0232,0.0232,0.0212,0.0211,0.021,0.021,0.0117,0.0114,0.0111,0.011,0,0,0.0102,0.0101,0,0,0,0,0,0,0,0,0.0236,0.0236,0.0229,0.0228,0.0227,0.0221,0.0196,0.0186,0.0212,0.0219,0.021,0.0209,0.0142,0.0137,0.0141,0.0106,0.0102,0.0102,0.01,0.0099,0.0098,0,0,0,0,0,0,0,0.0236,0.0237,0.0239,0.0229,0.0227,0.0221,0.0221,0.0195,0.0185,0.0218,0.0217,0.0213,0.0141,0.0144,0.0138,0.0101,0.0102,0.0099,0.0097,0.0096,0.0019,0.0019,0,0,0,0,0,0,0.0235,0.0237,0.0239,0.0238,0.0227,0.0222,0.0221,0.0225,0.0187,0.0181,0.0214,0.0212,0.015,0.0142,0.0135,0.0111,0.0099,0.0096,0.0094,0.002,0.0019,0.0019,0,0,0,0,0,0,0.0235,0.0235,0.0239,0.0235,0.0235,0.0223,0.0227,0.0225,0.0227,0.0185,0.0177,0.0217,0.0149,0.0139,0.0111,0.0107,0.0095,0.0092,0.002,0.0019,0.0019,0.0075,0,0,0,0,0,0,0.0235,0.0236,0.0241,0.0236,0.0235,0.0244,0.0228,0.0225,0.0225,0.0223,0.0185,0.0176,0.0147,0.0116,0.0108,0.0103,0.009,0.002,0.002,0.0019,0.0074,0.0077,0.0079,0,0,0,0,0,0.0235,0.0249,0.0242,0.0242,0.0242,0.0245,0.0245,0.0234,0.0226,0.0232,0.0203,0.0177,0.0107,0.0114,0.0105,0.0099,0.002,0.002,0.0019,0.0072,0.0076,0.0079,0,0,0,0,0,0,0.0254,0.0248,0.024,0.0252,0.0247,0.0241,0.0245,0.0239,0.0225,0.0219,0.018,0.0169,0.0141,0.0113,0.0122,0.0073,0.0056,0.0054,0.01,0.0103,0.0106,0.0128,0.0087,0,0,0,0,0,0.0259,0.0269,0.0257,0.0269,0.0265,0.0256,0.0256,0.025,0.0235,0.023,0.0204,0.0168,0.0133,0.0114,0.0082,0.0062,0.003,0.0048,0.0051,0.0054,0.0065,0.0014,0.0014,0.0017,0.0017,0.0017,0,0,0.027,0.0269,0.0274,0.0274,0.0269,0.0274,0.0255,0.0259,0.0263,0.0219,0.0216,0.018,0.013,0.0105,0.0089,0.008,0.0035,0.0053,0.0056,0.0066,0.0014,0.0014,0.0014,0.0017,0.0017,0.0017,0,0,0.03,0.0293,0.0309,0.0306,0.0301,0.0293,0.0294,0.0287,0.0281,0.0274,0.0236,0.0205,0.0161,0.0127,0.0101,0.0101,0.0053,0.0081,0.0113,0.0064,0.0064,0.0063,0.0022,0.0017,0.0081,0.0081,0.0082,0,0.0309,0.033,0.0314,0.0327,0.0328,0.0302,0.0317,0.0309,0.0296,0.0293,0.0277,0.0214,0.0174,0.0134,0.0133,0.0109,0.0073,0.0107,0.007,0.0068,0.0067,0.0024,0.0018,0.0084,0.0084,0.0083,0.0083,0,0.0349,0.0363,0.0372,0.0376,0.0375,0.0385,0.0364,0.0366,0.0352,0.034,0.0309,0.0257,0.0221,0.0194,0.0164,0.0128,0.0104,0.0081,0.0066,0.007,0.0024,0.0017,0.0088,0.0087,0.0086,0.0085,0,0,0.0376,0.0396,0.0399,0.0412,0.0403,0.0409,0.041,0.0406,0.0413,0.0382,0.038,0.0316,0.0289,0.0258,0.0207,0.0162,0.0119,0.0122,0.0118,0.0091,0.0011,0.0011,0.0003,0.0085,0.0084,0.0083,-0.0016,0,0.0411,0.0452,0.0448,0.048,0.0494,0.0474,0.0481,0.0471,0.0453,0.0444,0.038,0.0356,0.031,0.0291,0.0239,0.0149,0.0102,0.0148,0.0003,-0.0001,0.0007,-0.0004,0.008,-0.0022,-0.0023,-0.0025,-0.0026,0,0.0449,0.0471,0.0514,0.0537,0.054,0.0558,0.0565,0.0568,0.054,0.0526,0.0487,0.0434,0.0367,0.0325,0.0184,0.0213,0.0124,0.005,0.0044,0.0023,-0.0014,-0.0029,-0.0039,-0.0038,-0.0037,-0.0036,-0.0035,0,0.0481,0.0516,0.0557,0.0565,0.0583,0.0605,0.0613,0.0601,0.0614,0.058,0.0581,0.0487,0.0449,0.0323,0.0183,0.0177,0.0022,-0.0007,-0.0093,-0.0094,-0.0088,-0.0087,-0.0107,-0.0107,-0.0107,-0.0107,-0.0106,0,0.0515,0.0546,0.0584,0.0607,0.0658,0.0652,0.0697,0.0694,0.0693,0.0712,0.0631,0.0616,0.0446,0.0338,0.0198,0.0039,0.0033,-0.0085,-0.012,-0.0064,-0.0058,-0.0094,-0.0091,-0.011,-0.011,-0.0109,-0.0108,0,0.0536,0.0563,0.0615,0.0658,0.068,0.0715,0.0766,0.0792,0.0788,0.0808,0.0802,0.0711,0.0571,0.0393,0.0186,0.0074,-0.009,-0.0147,-0.0063,-0.0092,-0.0181,-0.0174,-0.0256,-0.0257,-0.0258,-0.0258,-0.0259,0,0.0549,0.0582,0.0659,0.07,0.0727,0.0784,0.0823,0.0842,0.0875,0.0867,0.088,0.0763,0.0677,0.0397,0.0201,-0.0068,-0.0108,-0.0193,-0.0198,-0.017,-0.0196,-0.0188,-0.0181,-0.026,-0.026,-0.026,-0.026,0,0.0569,0.0606,0.0648,0.0739,0.0801,0.0864,0.0927,0.0961,0.0981,0.0978,0.0943,0.0796,0.0637,0.0409,0.0202,0.0008,-0.014,-0.0202,-0.0202,-0.0207,-0.0175,-0.0199,-0.0191,-0.0263,-0.0262,-0.0262,-0.0262,0,0.0585,0.0619,0.0691,0.0766,0.0846,0.0923,0.0955,0.0993,0.1023,0.1018,0.1004,0.0831,0.0731,0.0448,0.0259,0.0067,0.0009,-0.0058,-0.0067,-0.0067,0.0014,0.0083,0.0048,0,0,0,0,0,0.0593,0.0636,0.071,0.0796,0.0876,0.0932,0.1012,0.1037,0.1064,0.1049,0.1032,0.0884,0.0605,0.0488,0.0295,0.0226,-0.0036,-0.0009,-0.012,-0.0276,-0.0273,-0.0211,0,0,0,0,0,0,0.0597,0.0667,0.0705,0.0807,0.0873,0.0967,0.1024,0.1047,0.1043,0.1042,0.0901,0.0831,0.0562,0.0715,0.029,0.0232,0.0134,-0.0137,-0.0142,-0.0278,-0.0275,-0.0273,-0.0208,0,0,0,0,0]}]]